Kaneohe MCBH, HI

8:59 PM HST on March 26, 2017 (GMT -1000)
Kaneohe Bay Marine Corps Air Facility

Weather History for PHNG - January, 2014

Change the Weather History Date:

Friday, January 17, 2014

  Actual Average Record
Temperature  
Mean Temperature 74 °F -  
Max Temperature 78 °F 76 °F 80 °F (2005)
Min Temperature 69 °F 66 °F 55 °F (2003)
Cooling Degree Days 8    
Growing Degree Days 24 (Base 50)    
Moisture  
Dew Point 65 °F    
Average Humidity 72    
Maximum Humidity 83    
Minimum Humidity 62    
Precipitation  
Precipitation 0.00 in - - ()
Sea Level Pressure  
Sea Level Pressure 29.99 in    
Wind  
Wind Speed 1 mph (SE)    
Max Wind Speed 5 mph    
Max Gust Speed -    
Visibility 8 miles    
Events Rain    
Averages and records for this station are not official NWS values.
T = Trace of Precipitation, MM = Missing Value Source: NWS Daily Summary

Daily Weather History Graph

Daily Weather History Graph

Search for Another Location

Airport or City:

Trip Planner

Search our weather history database for the weather conditions in past years. The results will help you decide how hot, cold, wet, or windy it might be!

Date:

Astronomy

Jan. 17, 2014 Rise Set
Actual Time 7:11 AM HST 6:11 PM HST
Civil Twilight 6:47 AM HST 6:35 PM HST
Nautical Twilight 6:20 AM HST 7:02 PM HST
Astronomical Twilight 5:53 AM HST 7:29 PM HST
Moon 7:48 PM HST (1/17) 8:02 AM HST (1/17)
Length of Visible Light 11h 47m
Length of Day
10h 59m
Full, 97% of the Moon is Illuminated
Jan 17
Full
Jan 23
Last Quarter
Jan 30
New
Feb 6
First Quarter
Feb 14
Full

Hourly Weather History & Observations

Time (HST) Temp. Dew Point Humidity Pressure Visibility Wind Dir Wind Speed Gust Speed Precip Events Conditions
12:57 AM 71.6 °F 63.0 °F 74% 29.98 in 10.0 mi West 3.5 mph - N/A   Mostly Cloudy
1:57 AM 71.6 °F 62.1 °F 72% 29.97 in 9.0 mi Calm Calm - N/A   Overcast
2:57 AM 71.6 °F 63.0 °F 74% 29.96 in 9.0 mi Calm Calm - N/A   Mostly Cloudy
3:57 AM 71.6 °F 64.0 °F 77% 29.96 in 9.0 mi Calm Calm - N/A   Mostly Cloudy
4:57 AM 69.8 °F 63.0 °F 79% 29.96 in 8.0 mi Calm Calm - N/A   Scattered Clouds
5:27 AM 69.8 °F 62.6 °F 78% 29.98 in 6.2 mi SSE 3.5 mph - N/A   Mostly Cloudy
5:57 AM 69.8 °F 62.1 °F 76% 29.97 in 8.0 mi Calm Calm - N/A   Scattered Clouds
6:57 AM 69.8 °F 62.1 °F 76% 29.97 in 8.0 mi Calm Calm - N/A   Scattered Clouds
7:04 AM - - N/A% 29.99 in 6.2 mi Calm Calm - N/A   Overcast
7:19 AM 69.8 °F 64.4 °F 83% 29.99 in 6.2 mi Calm Calm - N/A   Scattered Clouds
7:57 AM 73.4 °F 64.9 °F 75% 29.99 in 7.0 mi Calm Calm - N/A   Scattered Clouds
8:57 AM 73.4 °F 66.0 °F 78% 30.00 in 7.0 mi Calm Calm - N/A   Scattered Clouds
9:14 AM 75.2 °F 66.2 °F 73% 30.02 in 6.2 mi WSW 3.5 mph - N/A   Mostly Cloudy
9:25 AM 75.2 °F 66.2 °F 73% 30.03 in 6.2 mi SSW 3.5 mph - N/A   Partly Cloudy
9:57 AM 75.2 °F 66.0 °F 73% 30.02 in 7.0 mi NNE 3.5 mph - N/A   Scattered Clouds
10:57 AM 78.8 °F 66.9 °F 67% 30.02 in 7.0 mi ENE 4.6 mph - N/A   Scattered Clouds
11:57 AM 78.8 °F 66.0 °F 65% 30.01 in 9.0 mi ENE 4.6 mph - N/A   Scattered Clouds
12:57 PM 78.8 °F 64.9 °F 62% 29.99 in 10.0 mi Calm Calm - N/A   Scattered Clouds
1:57 PM 77.0 °F 66.0 °F 69% 29.97 in 10.0 mi ESE 4.6 mph - N/A   Scattered Clouds
2:57 PM 77.0 °F 64.9 °F 66% 29.96 in 10.0 mi Variable 4.6 mph - N/A   Scattered Clouds
3:57 PM 77.0 °F 64.9 °F 66% 29.96 in 8.0 mi ESE 3.5 mph - 0.00 in   Scattered Clouds
4:57 PM 77.0 °F 64.9 °F 66% 29.98 in 7.0 mi Calm Calm - 0.00 in   Scattered Clouds
5:06 PM 77.0 °F 66.2 °F 69% 29.99 in 6.0 mi Calm Calm - 0.00 in Rain Light Rain
5:44 PM 77.0 °F 66.2 °F 69% 29.99 in 6.2 mi Calm Calm - 0.00 in   Overcast
5:57 PM 77.0 °F 66.0 °F 69% 29.99 in 8.0 mi Calm Calm - 0.00 in   Overcast
6:57 PM 77.0 °F 66.9 °F 71% 29.99 in 8.0 mi Calm Calm - N/A   Scattered Clouds
7:57 PM 75.2 °F 66.0 °F 73% 30.01 in 8.0 mi Calm Calm - N/A   Mostly Cloudy
8:57 PM 75.2 °F 66.9 °F 75% 30.01 in 7.0 mi Calm Calm - N/A   Partly Cloudy
9:57 PM 75.2 °F 64.9 °F 70% 30.02 in 5.0 mi Calm Calm - N/A   Haze
10:57 PM 73.4 °F 64.0 °F 72% 30.01 in 7.0 mi Calm Calm - N/A   Clear
11:57 PM 71.6 °F 63.0 °F 74% 30.01 in 6.0 mi Calm Calm - N/A   Haze